Tracking 19193 objects as of 23-Jun-2018
HD Live streaming from Space Station
objects crossing your sky now

FENGYUN 1C DEB

Track FENGYUN 1C DEB now!
10-day predictions


NORAD ID: 31038
Int'l Code: 1999-025BEG
Perigee: 704.2 km
Apogee: 840.8 km
Inclination: 99.0 °
Period: 100.1 minutes
Semi major axis: 7143 km
RCS: 0.0091 m2 (small)
Launch date: May 10, 1999
Source: People's Republic of China (PRC)
Launch site: Taiyaun Space Center, China (TSC)

Note: This is SATELLITE DEBRIS
aabbcc
Your satellite tracking list
Your tracking list is empty




NASA's NSSDC Master Catalog

Two Line Element Set (TLE):
1 31038U 99025BEG 18173.65662378 +.00000168 +00000-0 +68868-4 0  9998
2 31038 099.0246 065.6975 0095639 353.7740 006.2250 14.37930978589431
Source of the keplerian elements: AFSPC